Regional Weather Roundup
Issued by NWS Midland/Odessa, TX

Skip options and go directly to product.
Home | Oldest Version | Next Version | Current Version | All | Text Only | Save Text | Print | Product List | Glossary On

Skip product version selection by date and time.   
291
ASUS44 KMAF 270310
RWRMAF
MIDLAND AREA WEATHER ROUNDUP
NATIONAL WEATHER SERVICE MIDLAND TX
1000 PM CDT WED APR 26 2017

...IN SOUTHWEST TEXAS AND SOUTHEAST NEW MEXICO...

CITY           SKY/WX    TMP DP  RH WIND       PRES   REMARKS
ALPINE         CLEAR     60  24  25 N3        29.91R
ANDREWS        FAIR      58  35  42 SE7       29.79S
ARTESIA        CLOUDY    63  30  29 S7        29.74S
BIG SPRING     CLEAR     56  37  48 E8        29.80S
CARLSBAD       PTCLDY    65  20  17 SE7       29.74R
DRYDEN           N/A     64  30  27 NE6       29.77R
FORT STOCKTON  CLEAR     64  30  27 E7        29.80R
GUAD PASS      CLEAR     61  14  16 SW12      29.86R
HOBBS          CLEAR     55  28  35 SE6       29.79R
MARFA          CLEAR     56  17  21 NW6       29.88R
MIDLAND AIRPK  CLEAR     65  33  29 E5        29.79R
MIDLAND INTL   CLEAR     62  33  33 SE7       29.78R
ODESSA         CLEAR     63  33  32 SE8       29.79R
PECOS          CLEAR     62  28  28 E8        29.77S
PRESIDIO       FAIR      76  25  15 NW6       29.76R
SEMINOLE       CLEAR     58  34  40 CALM      29.79R
SNYDER         CLEAR    N/A N/A N/A SE7       29.80R
WINK           CLEAR     63  33  32 SE7       29.76R
$$
...OTHER STATIONS IN TEXAS...

CITY           SKY/WX    TMP DP  RH WIND       PRES   REMARKS
ABILENE        CLEAR     53  41  63 S7        29.80R
AMARILLO       CLEAR     47  35  63 E7        29.77R
AUSTIN         MOCLDY    70  45  40 N15       29.76R
BROWNSVILLE    CLEAR     80  70  71 E3        29.64R
CORPUS CHRISTI PTCLDY    83  41  22 N18       29.64R
DALLAS FTW     CLEAR     55  46  71 N5        29.76S
DEL RIO        CLEAR     70  36  28 SE5       29.74R
EL PASO        PTCLDY    77  13   9 W20G30    29.75S
HOUSTON INT    MOCLDY    72  54  53 N12       29.73R
LUBBOCK        PTCLDY    54  36  50 SE9       29.76R
SAN ANGELO     CLEAR     59  35  40 NE8       29.79S
SAN ANTONIO    PTCLDY    72  44  36 NE8       29.76R
WACO           CLEAR     54  48  80 NW7       29.82R
WICHITA FALLS  NOT AVBL
$$
...OTHER LOCATIONS IN NEW MEXICO...

CITY           SKY/WX    TMP DP  RH WIND       PRES   REMARKS
ALAMOGORDO     CLOUDY    66  16  14 S10       29.76S
ALBUQUERQUE    CLOUDY    62  20  19 W7        29.78R
CANNON AFB     CLOUDY    61  28  28 S10       29.73R
CLOVIS         PTCLDY    57  32  38 S9        29.74R
HOLLOMAN AFB   PTCLDY    69  14  12 S9        29.78R
ROSWELL        CLEAR     62  28  27 S9          N/A
RUIDOSO        CLEAR     54  14  20 SW16      29.86F
SANTA FE       CLOUDY    49  21  33 CALM      29.80R
TRUTH OR CONSE PTCLDY    69  13  11 W13G24    29.74R
TUCUMCARI      CLEAR     54  37  52 NE10      29.70R
$$

  • National Weather Service
  • Southern Region Headquarters
  • 819 Taylor Street, Room 10A06
  • Fort Worth, TX 76102
  • Page Author: NWS Fort Worth
  • Web Master: SR-SRH.Webmaster@noaa.gov
  •  
  • Page last modified: 30-Sep-2016 6:36 PM UTC
USA.gov is the U.S. government's official web portal to all federal, state and local government web resources and services.